09341 UUEM-ULOO

Flight info

Callsign 09341
Flight time 0h 55m
Altitude FL180
Route UUEM SID AMIN N869 USIDA STARA SOSEB P607 GEKSU ABNOL OKMIT STAR ULOO
Aircraft AN22/H-S/N

Departure

Time 2026-04-11 14:25
Airport Migalovo Air Base (UUEM)

Arrival

Time 2026-04-11 15:21
Airport Princess Olga Pskov International Airport (ULOO)
Time Latitude Longitude Altitude Speed Heading
2026-04-11 14:10 56.83319 35.76900 488 ft 0 kts 41°
2026-04-11 14:13 56.83320 35.76900 488 ft 0 kts 41°
2026-04-11 14:14 56.83320 35.76901 488 ft 0 kts 41°
2026-04-11 14:15 56.83332 35.76920 488 ft 4 kts 41°
2026-04-11 14:15 56.83345 35.76979 489 ft 10 kts 91°
2026-04-11 14:16 56.83309 35.77136 488 ft 20 kts 121°
2026-04-11 14:16 56.83215 35.77354 489 ft 22 kts 130°
2026-04-11 14:16 56.83124 35.77517 488 ft 16 kts 156°
2026-04-11 14:16 56.83039 35.77561 489 ft 9 kts 172°
2026-04-11 14:17 56.82997 35.77496 489 ft 9 kts 256°
2026-04-11 14:17 56.82979 35.77370 488 ft 12 kts 255°
2026-04-11 14:17 56.82954 35.77205 489 ft 15 kts 255°
2026-04-11 14:17 56.82922 35.76989 489 ft 21 kts 255°
2026-04-11 14:18 56.82878 35.76686 488 ft 28 kts 255°
2026-04-11 14:18 56.82830 35.76368 488 ft 19 kts 255°
2026-04-11 14:18 56.82794 35.76123 488 ft 21 kts 256°
2026-04-11 14:18 56.82755 35.75856 489 ft 23 kts 255°
2026-04-11 14:19 56.82710 35.75573 488 ft 24 kts 257°
2026-04-11 14:19 56.82668 35.75276 488 ft 25 kts 255°
2026-04-11 14:19 56.82622 35.74964 489 ft 26 kts 255°
2026-04-11 14:19 56.82584 35.74701 488 ft 14 kts 255°
2026-04-11 14:20 56.82558 35.74507 488 ft 19 kts 255°
2026-04-11 14:20 56.82521 35.74254 489 ft 21 kts 255°
2026-04-11 14:20 56.82481 35.73984 488 ft 23 kts 255°
2026-04-11 14:20 56.82447 35.73755 489 ft 14 kts 256°
2026-04-11 14:21 56.82428 35.73667 489 ft 7 kts 221°
2026-04-11 14:21 56.82384 35.73668 489 ft 7 kts 163°
2026-04-11 14:21 56.82326 35.73697 488 ft 10 kts 164°
2026-04-11 14:21 56.82273 35.73724 488 ft 0 kts 164°
2026-04-11 14:22 56.82273 35.73725 488 ft 0 kts 164°
2026-04-11 14:22 56.82260 35.73731 488 ft 5 kts 164°
2026-04-11 14:22 56.82209 35.73761 488 ft 5 kts 148°
2026-04-11 14:22 56.82197 35.73804 488 ft 5 kts 94°
2026-04-11 14:23 56.82206 35.73903 489 ft 5 kts 71°
2026-04-11 14:23 56.82206 35.73905 488 ft 0 kts 71°
2026-04-11 14:23 56.82206 35.73906 488 ft 0 kts 71°
2026-04-11 14:24 56.82219 35.73979 489 ft 26 kts 75°
2026-04-11 14:24 56.82319 35.74664 489 ft 85 kts 75°
2026-04-11 14:24 56.82515 35.76012 501 ft 133 kts 76°
2026-04-11 14:25 56.82737 35.77749 896 ft 148 kts 78°
2026-04-11 14:25 56.82678 35.79865 974 ft 190 kts 105°
2026-04-11 14:25 56.81885 35.82022 1231 ft 223 kts 133°
2026-04-11 14:25 56.80482 35.83478 1616 ft 243 kts 159°
2026-04-11 14:26 56.78755 35.83761 2042 ft 260 kts 181°
2026-04-11 14:26 56.76998 35.82732 2451 ft 276 kts 204°
2026-04-11 14:26 56.75458 35.80513 2866 ft 291 kts 221°
2026-04-11 14:26 56.74103 35.77690 3259 ft 303 kts 228°
2026-04-11 14:27 56.72758 35.74682 3662 ft 310 kts 227°
2026-04-11 14:27 56.71288 35.71852 4062 ft 307 kts 220°
2026-04-11 14:27 56.69659 35.69415 4465 ft 302 kts 212°
2026-04-11 14:27 56.67897 35.67420 4860 ft 298 kts 206°
2026-04-11 14:28 56.66222 35.65199 5237 ft 301 kts 216°
2026-04-11 14:28 56.64755 35.62501 5616 ft 302 kts 224°
2026-04-11 14:28 56.63460 35.59519 5990 ft 302 kts 229°
2026-04-11 14:28 56.62289 35.56357 6365 ft 302 kts 233°
2026-04-11 14:29 56.61206 35.53088 6733 ft 302 kts 235°
2026-04-11 14:29 56.60181 35.49755 7037 ft 304 kts 237°
2026-04-11 14:29 56.59189 35.46371 7344 ft 305 kts 238°
2026-04-11 14:29 56.58219 35.42960 7643 ft 306 kts 238°
2026-04-11 14:30 56.57251 35.39508 7951 ft 311 kts 238°
2026-04-11 14:30 56.56269 35.35982 8258 ft 317 kts 238°
2026-04-11 14:30 56.55270 35.32386 8565 ft 323 kts 238°
2026-04-11 14:30 56.54259 35.28743 8869 ft 328 kts 238°
2026-04-11 14:31 56.53229 35.25037 9172 ft 331 kts 238°
2026-04-11 14:31 56.52184 35.21286 9474 ft 335 kts 239°
2026-04-11 14:31 56.51139 35.17535 9862 ft 334 kts 239°
2026-04-11 14:31 56.50097 35.13798 10235 ft 334 kts 238°
2026-04-11 14:32 56.49050 35.10048 10610 ft 334 kts 238°
2026-04-11 14:32 56.48004 35.06316 10988 ft 333 kts 238°
2026-04-11 14:32 56.46993 35.02559 11359 ft 335 kts 243°
2026-04-11 14:32 56.46508 34.98441 11731 ft 339 kts 263°
2026-04-11 14:33 56.46666 34.94197 12127 ft 340 kts 276°
2026-04-11 14:33 56.47214 34.90057 12509 ft 339 kts 285°
2026-04-11 14:33 56.47987 34.86044 12886 ft 338 kts 290°
2026-04-11 14:33 56.48887 34.82132 13260 ft 337 kts 293°
2026-04-11 14:34 56.49853 34.78289 13633 ft 336 kts 295°
2026-04-11 14:34 56.50849 34.74491 14006 ft 334 kts 295°
2026-04-11 14:34 56.51851 34.70731 14375 ft 331 kts 296°
2026-04-11 14:34 56.52846 34.66998 14680 ft 330 kts 296°
2026-04-11 14:35 56.53835 34.63274 14978 ft 328 kts 296°
2026-04-11 14:35 56.54813 34.59558 15277 ft 327 kts 296°
2026-04-11 14:35 56.55780 34.55851 15575 ft 325 kts 295°
2026-04-11 14:35 56.56735 34.52158 15872 ft 324 kts 295°
2026-04-11 14:36 56.57681 34.48470 16173 ft 323 kts 295°
2026-04-11 14:36 56.58622 34.44779 16480 ft 323 kts 295°
2026-04-11 14:36 56.59558 34.41090 16782 ft 322 kts 295°
2026-04-11 14:36 56.60488 34.37405 17081 ft 322 kts 295°
2026-04-11 14:37 56.61410 34.33740 17378 ft 321 kts 295°
2026-04-11 14:37 56.62338 34.30038 17604 ft 323 kts 295°
2026-04-11 14:37 56.63270 34.26315 17785 ft 326 kts 295°
2026-04-11 14:37 56.63968 34.23520 17909 ft 329 kts 295°
2026-04-11 14:38 56.64851 34.20020 18038 ft 332 kts 296°
2026-04-11 14:38 56.65853 34.16221 18102 ft 337 kts 297°
2026-04-11 14:38 56.66902 34.12372 18108 ft 344 kts 298°
2026-04-11 14:38 56.67987 34.08467 18107 ft 350 kts 298°
2026-04-11 14:39 56.69101 34.04499 18106 ft 355 kts 298°
2026-04-11 14:39 56.70230 34.00502 18102 ft 357 kts 298°
2026-04-11 14:39 56.71362 33.96500 18106 ft 357 kts 298°
2026-04-11 14:39 56.72498 33.92485 18107 ft 358 kts 298°
2026-04-11 14:40 56.73636 33.88463 18107 ft 359 kts 298°
2026-04-11 14:40 56.74777 33.84429 18107 ft 360 kts 298°
2026-04-11 14:40 56.75918 33.80385 18107 ft 360 kts 298°
2026-04-11 14:40 56.77060 33.76332 18106 ft 361 kts 298°
2026-04-11 14:41 56.78203 33.72268 18113 ft 361 kts 298°
2026-04-11 14:41 56.79343 33.68200 18113 ft 362 kts 299°
2026-04-11 14:41 56.80485 33.64121 18113 ft 362 kts 299°
2026-04-11 14:41 56.81629 33.60034 18113 ft 363 kts 299°
2026-04-11 14:42 56.82772 33.55940 18114 ft 363 kts 299°
2026-04-11 14:42 56.83915 33.51843 18115 ft 364 kts 298°
2026-04-11 14:42 56.85058 33.47736 18121 ft 364 kts 298°
2026-04-11 14:43 56.87343 33.39506 18116 ft 365 kts 298°
2026-04-11 14:43 56.88486 33.35378 18119 ft 365 kts 298°
2026-04-11 14:43 56.89626 33.31250 18118 ft 365 kts 298°
2026-04-11 14:43 56.90766 33.27115 18122 ft 365 kts 298°
2026-04-11 14:44 56.91905 33.22979 18129 ft 365 kts 298°
2026-04-11 14:44 56.93041 33.18841 18131 ft 365 kts 298°
2026-04-11 14:44 56.94176 33.14697 18133 ft 365 kts 298°
2026-04-11 14:44 56.95311 33.10549 18133 ft 365 kts 298°
2026-04-11 14:45 56.96445 33.06396 18138 ft 365 kts 298°
2026-04-11 14:45 56.97578 33.02244 18143 ft 365 kts 298°
2026-04-11 14:45 56.98709 32.98091 18144 ft 365 kts 298°
2026-04-11 14:45 56.99839 32.93931 18143 ft 365 kts 298°
2026-04-11 14:46 57.00969 32.89765 18142 ft 366 kts 298°
2026-04-11 14:46 57.02097 32.85601 18143 ft 366 kts 298°
2026-04-11 14:46 57.03224 32.81432 18144 ft 366 kts 298°
2026-04-11 14:46 57.04349 32.77259 18149 ft 366 kts 298°
2026-04-11 14:47 57.05472 32.73088 18147 ft 366 kts 298°
2026-04-11 14:47 57.06594 32.68906 18148 ft 366 kts 298°
2026-04-11 14:47 57.07715 32.64726 18146 ft 366 kts 298°
2026-04-11 14:47 57.08835 32.60541 18146 ft 366 kts 298°
2026-04-11 14:48 57.09953 32.56357 18150 ft 366 kts 298°
2026-04-11 14:48 57.11070 32.52171 18155 ft 366 kts 298°
2026-04-11 14:48 57.12186 32.47978 18157 ft 366 kts 298°
2026-04-11 14:48 57.13299 32.43790 18159 ft 366 kts 298°
2026-04-11 14:49 57.14410 32.39599 18167 ft 365 kts 298°
2026-04-11 14:49 57.15520 32.35405 18169 ft 365 kts 298°
2026-04-11 14:49 57.17735 32.27011 18179 ft 365 kts 298°
2026-04-11 14:50 57.18840 32.22810 18179 ft 365 kts 298°
2026-04-11 14:50 57.19938 32.18600 18178 ft 366 kts 298°
2026-04-11 14:50 57.20925 32.14284 18180 ft 367 kts 294°
2026-04-11 14:50 57.21795 32.09873 18181 ft 367 kts 291°
2026-04-11 14:51 57.22586 32.05408 18182 ft 367 kts 289°
2026-04-11 14:51 57.23326 32.00907 18182 ft 368 kts 288°
2026-04-11 14:51 57.24032 31.96387 18181 ft 368 kts 287°
2026-04-11 14:51 57.24719 31.91848 18181 ft 368 kts 287°
2026-04-11 14:52 57.25391 31.87307 18181 ft 368 kts 287°
2026-04-11 14:52 57.26056 31.82760 18186 ft 368 kts 287°
2026-04-11 14:52 57.26715 31.78206 18185 ft 368 kts 287°
2026-04-11 14:52 57.27371 31.73659 18186 ft 368 kts 287°
2026-04-11 14:53 57.28026 31.69109 18185 ft 368 kts 287°
2026-04-11 14:53 57.28680 31.64552 18186 ft 368 kts 287°
2026-04-11 14:53 57.29333 31.60001 18195 ft 367 kts 287°
2026-04-11 14:53 57.29984 31.55455 18197 ft 365 kts 287°
2026-04-11 14:54 57.30617 31.51015 18190 ft 351 kts 287°
2026-04-11 14:54 57.31221 31.46754 18197 ft 336 kts 287°
2026-04-11 14:54 57.31801 31.42661 18196 ft 324 kts 287°
2026-04-11 14:54 57.32359 31.38706 18202 ft 313 kts 287°
2026-04-11 14:55 57.32900 31.34878 18205 ft 304 kts 287°
2026-04-11 14:55 57.33431 31.31121 18211 ft 303 kts 287°
2026-04-11 14:55 57.33965 31.27355 18209 ft 304 kts 287°
2026-04-11 14:55 57.34502 31.23567 18207 ft 305 kts 287°
2026-04-11 14:56 57.35037 31.19773 18207 ft 306 kts 288°
2026-04-11 14:56 57.35573 31.15962 18209 ft 307 kts 287°
2026-04-11 14:56 57.36109 31.12148 18214 ft 307 kts 287°
2026-04-11 14:56 57.36644 31.08321 18213 ft 308 kts 287°
2026-04-11 14:57 57.37178 31.04490 18211 ft 309 kts 287°
2026-04-11 14:57 57.37713 31.00646 18210 ft 309 kts 287°
2026-04-11 14:57 57.38248 30.96809 18201 ft 306 kts 287°
2026-04-11 14:57 57.38785 30.93026 17994 ft 304 kts 288°
2026-04-11 14:58 57.39327 30.89270 17737 ft 301 kts 288°
2026-04-11 14:58 57.39868 30.85542 17477 ft 299 kts 288°
2026-04-11 14:58 57.40407 30.81845 17219 ft 297 kts 288°
2026-04-11 14:58 57.40943 30.78170 16967 ft 295 kts 288°
2026-04-11 14:59 57.41475 30.74519 16716 ft 293 kts 288°
2026-04-11 14:59 57.42004 30.70893 16467 ft 291 kts 287°
2026-04-11 14:59 57.42531 30.67285 16209 ft 290 kts 287°
2026-04-11 14:59 57.43053 30.63689 15952 ft 289 kts 287°
2026-04-11 15:00 57.43571 30.60115 15694 ft 287 kts 287°
2026-04-11 15:00 57.44088 30.56549 15435 ft 286 kts 287°
2026-04-11 15:00 57.44600 30.53002 15184 ft 285 kts 287°
2026-04-11 15:00 57.45110 30.49467 14934 ft 283 kts 287°
2026-04-11 15:01 57.45616 30.45948 14684 ft 282 kts 287°
2026-04-11 15:01 57.46119 30.42443 14435 ft 281 kts 287°
2026-04-11 15:01 57.46619 30.38952 14185 ft 280 kts 287°
2026-04-11 15:01 57.47116 30.35472 13936 ft 279 kts 286°
2026-04-11 15:02 57.47611 30.32002 13686 ft 278 kts 286°
2026-04-11 15:02 57.48103 30.28543 13432 ft 277 kts 286°
2026-04-11 15:02 57.48593 30.25090 13173 ft 277 kts 286°
2026-04-11 15:02 57.49080 30.21640 12914 ft 276 kts 286°
2026-04-11 15:03 57.49566 30.18195 12660 ft 276 kts 286°
2026-04-11 15:03 57.50049 30.14766 12430 ft 274 kts 286°
2026-04-11 15:03 57.50521 30.11406 12378 ft 265 kts 286°
2026-04-11 15:03 57.50981 30.08121 12349 ft 267 kts 286°
2026-04-11 15:04 57.51461 30.04706 12337 ft 281 kts 286°
2026-04-11 15:04 57.51964 30.01123 12303 ft 294 kts 286°
2026-04-11 15:04 57.52459 29.97596 12234 ft 306 kts 286°
2026-04-11 15:04 57.52980 29.93867 12164 ft 317 kts 285°
2026-04-11 15:05 57.53536 29.89872 12085 ft 318 kts 285°
2026-04-11 15:05 57.54076 29.85967 11993 ft 308 kts 285°
2026-04-11 15:05 57.54601 29.82157 11856 ft 301 kts 285°
2026-04-11 15:05 57.55112 29.78429 11702 ft 296 kts 285°
2026-04-11 15:06 57.55618 29.74740 11463 ft 293 kts 285°
2026-04-11 15:06 57.56117 29.71089 11205 ft 291 kts 285°
2026-04-11 15:06 57.56615 29.67440 10956 ft 292 kts 285°
2026-04-11 15:06 57.57115 29.63776 10707 ft 293 kts 285°
2026-04-11 15:07 57.57616 29.60101 10476 ft 293 kts 285°
2026-04-11 15:07 57.58115 29.56427 10244 ft 294 kts 285°
2026-04-11 15:07 57.58614 29.52743 9986 ft 294 kts 285°
2026-04-11 15:07 57.59113 29.49049 9737 ft 295 kts 285°
2026-04-11 15:08 57.59611 29.45351 9485 ft 295 kts 285°
2026-04-11 15:08 57.60106 29.41660 9320 ft 292 kts 285°
2026-04-11 15:08 57.60594 29.38020 9185 ft 288 kts 285°
2026-04-11 15:08 57.61077 29.34405 8948 ft 288 kts 285°
2026-04-11 15:09 57.61554 29.30822 8692 ft 284 kts 285°
2026-04-11 15:09 57.62025 29.27281 8430 ft 280 kts 285°
2026-04-11 15:09 57.62489 29.23786 8175 ft 277 kts 285°
2026-04-11 15:09 57.62946 29.20333 7922 ft 272 kts 285°
2026-04-11 15:10 57.63376 29.16908 7521 ft 272 kts 283°
2026-04-11 15:10 57.63659 29.13413 7017 ft 275 kts 278°
2026-04-11 15:10 57.63815 29.09857 6514 ft 277 kts 274°
2026-04-11 15:10 57.63886 29.06289 6181 ft 274 kts 272°
2026-04-11 15:11 57.63902 29.02783 6042 ft 268 kts 271°
2026-04-11 15:11 57.63889 28.99340 5908 ft 263 kts 270°
2026-04-11 15:11 57.63858 28.95921 5786 ft 270 kts 269°
2026-04-11 15:11 57.63816 28.92344 5668 ft 283 kts 269°
2026-04-11 15:12 57.63768 28.88613 5539 ft 294 kts 269°
2026-04-11 15:12 57.63714 28.84753 5387 ft 303 kts 269°
2026-04-11 15:12 57.63657 28.80808 5141 ft 301 kts 269°
2026-04-11 15:12 57.63599 28.76989 4885 ft 289 kts 269°
2026-04-11 15:13 57.63542 28.73309 4588 ft 279 kts 269°
2026-04-11 15:13 57.63487 28.69853 4345 ft 256 kts 269°
2026-04-11 15:13 57.63435 28.66634 4036 ft 242 kts 269°
2026-04-11 15:13 57.63386 28.63567 3730 ft 233 kts 269°
2026-04-11 15:14 57.63338 28.60608 3426 ft 225 kts 269°
2026-04-11 15:14 57.63292 28.57744 3211 ft 217 kts 269°
2026-04-11 15:14 57.63247 28.54972 3097 ft 212 kts 269°
2026-04-11 15:14 57.63201 28.52239 2924 ft 211 kts 269°
2026-04-11 15:15 57.63120 28.49505 2680 ft 211 kts 268°
2026-04-11 15:15 57.62998 28.46787 2427 ft 210 kts 266°
2026-04-11 15:15 57.62848 28.44126 2271 ft 204 kts 265°
2026-04-11 15:15 57.62687 28.41557 2187 ft 196 kts 264°
2026-04-11 15:16 57.62559 28.39084 2149 ft 188 kts 268°
2026-04-11 15:16 57.62627 28.36715 2077 ft 182 kts 278°
2026-04-11 15:16 57.62879 28.34360 2094 ft 192 kts 285°
2026-04-11 15:16 57.63371 28.31946 2053 ft 206 kts 301°
2026-04-11 15:17 57.64389 28.30264 2086 ft 193 kts 331°
2026-04-11 15:17 57.65646 28.29849 2067 ft 178 kts
2026-04-11 15:17 57.66704 28.30734 2075 ft 160 kts 36°
2026-04-11 15:17 57.67471 28.32108 2093 ft 150 kts 45°
2026-04-11 15:18 57.68294 28.33307 1977 ft 154 kts 37°
2026-04-11 15:18 57.69319 28.34178 1903 ft 170 kts 25°
2026-04-11 15:18 57.70465 28.34888 1854 ft 172 kts 20°
2026-04-11 15:18 57.71578 28.35452 1640 ft 160 kts 17°
2026-04-11 15:19 57.72615 28.35987 1299 ft 149 kts 18°
2026-04-11 15:19 57.73570 28.36543 1023 ft 140 kts 19°
2026-04-11 15:19 57.74478 28.37102 741 ft 136 kts 19°
2026-04-11 15:19 57.75344 28.37665 548 ft 128 kts 19°
2026-04-11 15:20 57.76172 28.38183 396 ft 128 kts 18°
2026-04-11 15:20 57.77029 28.38714 265 ft 125 kts 18°
2026-04-11 15:20 57.77790 28.39188 172 ft 106 kts 17°
2026-04-11 15:20 57.78384 28.39548 171 ft 67 kts 19°
2026-04-11 15:21 57.78721 28.39761 170 ft 38 kts 18°
2026-04-11 15:21 57.78936 28.39894 170 ft 31 kts 18°
2026-04-11 15:21 57.79112 28.40003 170 ft 13 kts 18°
2026-04-11 15:21 57.79193 28.40040 170 ft 14 kts 359°
2026-04-11 15:22 57.79267 28.39968 170 ft 12 kts 299°
2026-04-11 15:22 57.79302 28.39789 170 ft 8 kts 289°
2026-04-11 15:22 57.79308 28.39681 170 ft 11 kts 246°
2026-04-11 15:22 57.79251 28.39601 170 ft 15 kts 202°
2026-04-11 15:23 57.79127 28.39526 170 ft 20 kts 199°
2026-04-11 15:23 57.78995 28.39438 170 ft 21 kts 197°
2026-04-11 15:23 57.78852 28.39354 170 ft 23 kts 197°
2026-04-11 15:23 57.78697 28.39256 170 ft 25 kts 198°
2026-04-11 15:24 57.78520 28.39145 170 ft 28 kts 199°
2026-04-11 15:24 57.78337 28.39033 170 ft 28 kts 198°
2026-04-11 15:24 57.78165 28.38926 170 ft 23 kts 198°
2026-04-11 15:24 57.78016 28.38837 170 ft 19 kts 202°
2026-04-11 15:25 57.77995 28.38735 170 ft 4 kts 319°
2026-04-11 15:25 57.78046 28.38676 170 ft 17 kts 330°
2026-04-11 15:25 57.78172 28.38579 170 ft 20 kts 339°
2026-04-11 15:25 57.78307 28.38484 170 ft 21 kts 345°
2026-04-11 15:26 57.78345 28.38509 170 ft 5 kts 57°
2026-04-11 15:26 57.78341 28.38580 170 ft 3 kts 143°
2026-04-11 15:26 57.78310 28.38560 170 ft 0 kts 246°
2026-04-11 15:26 57.78309 28.38558 170 ft 0 kts 247°
2026-04-11 15:27 57.78311 28.38564 170 ft 2 kts 247°
2026-04-11 15:27 57.78317 28.38591 170 ft 3 kts 247°
2026-04-11 15:28 57.78318 28.38596 170 ft 0 kts 247°